sat.trackr.live / text

‹ back to catalog

ONEWEB-0178

NORAD 48075 · 2021-025AK

PAYLOAD ACTIVE UNKNOWN

§ Identity

Operator
Country
UK
Launch date
2021-03-25
Launch site
VOSTO
Launch vehicle
Mass (kg)
RCS (m²)

Purposes: comms

External: N2YO · Heavens-Above · Gunter

§ Orbital elements

Epoch: 2026-05-25T04:29:29.586336Z

Period
109.63 min
Inclination
87.8931°
Eccentricity
0.0001499
Mean motion
13.13470741 rev/d
Perigee alt
1,208.6 km
Apogee alt
1,210.9 km
Semi-major
7,587.9 km
B*
7.4051e-4
RAAN
324.8192°
Arg perigee
91.2420°
Mean anomaly
268.8880°
Rev number
25,070

§ Raw data

ONEWEB-01781 48075U 21025AK  26145.18714799  .00000283  00000+0  74051-3 0  99902 48075  87.8931 324.8192 0001499  91.2420 268.8880 13.13470741250707

JSON: /api/v1/satellites/48075 · /tle

For live sub-satellite position, see the globe view (requires WebGL).

§ Visibility from observer

Set your observer location to see the next 7 days of passes ≥ 10°. The values pass through the URL so the page stays shareable.

No JS? Fill the form by hand. The geolocation button needs JavaScript.